Tracking 27126 objects as of 30-Mar-2023
HD Live streaming from Space Station
objects crossing your sky now

BREEZE-M DEB (TANK)

Track BREEZE-M DEB (TANK) now!
10-day predictions


NORAD ID: 40386
Int'l Code: 2015-005C
Perigee: 395.9 km
Apogee: 14,698.4 km
Inclination: 50.7 °
Period: 272.4 minutes
Semi major axis: 13918 km
RCS: Unknown
Launch date: February 1, 2015
Source: Commonwealth of Independent States (former USSR) (CIS)
Launch site: TYURATAM MISSILE AND SPACE COMPLEX (TTMTR)

Note: This is SATELLITE DEBRIS
Your satellite tracking list
Your tracking list is empty




NASA's NSSDC Master Catalog

Two Line Element Set (TLE):
1 40386U 15005C   23088.52217895  .00005278  00000-0  29695-2 0  9997
2 40386  50.7055 228.9021 5138101 161.0395 228.9357  5.28727042156895
Source of the keplerian elements: AFSPC